Bettles, AK

7:59 PM AKDT on September 19, 2019 (GMT -0800)
Bettles

Weather History for PABT - May, 2019

Change the Weather History Date:

Thursday, May 16, 2019

  Actual Average Record
Temperature  
Mean Temperature 47 °F -  
Max Temperature 57 °F 52 °F 69 °F (1990)
Min Temperature 37 °F 31 °F 12 °F (1992)
Degree Days  
Heating Degree Days 18    
Moisture  
Dew Point 22 °F    
Average Humidity 33    
Maximum Humidity 60    
Minimum Humidity 11    
Precipitation  
Precipitation 0.00 in - - ()
Snow  
Snow 0.00 in - - ()
Snow Depth 9.00 in    
Sea Level Pressure  
Sea Level Pressure 29.76 in    
Wind  
Wind Speed 9 mph (NE)    
Max Wind Speed 15 mph    
Max Gust Speed 25 mph    
Visibility 10 miles    
Events      
Averages and records for this station are not official NWS values.
T = Trace of Precipitation, MM = Missing Value Source: NWS Daily Summary

Daily Weather History Graph

Daily Weather History Graph

Search for Another Location

Airport or City:

Astronomy

May. 16, 2019 Rise Set
Actual Time 4:08 AM AKDT 12:00 AM AKDT
Civil Twilight 2:34 AM AKDT Sun does not set
Nautical Twilight Sun does not set Sun does not set
Astronomical Twilight Sun does not set Sun does not set
Moon 8:01 PM AKDT (5/16) 5:21 AM AKDT (5/16)
Length of Visible Light 24h 00m
Length of Day
19h 51m
Waxing Gibbous, 95% of the Moon is Illuminated
May 16
Waxing Gibbous
May 18
Full
May 26
Last Quarter
Jun 3
New
Jun 9
First Quarter

Hourly Weather History & Observations

Time (AKDT) Temp. Windchill Dew Point Humidity Pressure Visibility Wind Dir Wind Speed Gust Speed Precip Events Conditions
12:53 AM 48.9 °F - 24.1 °F 38% 29.85 in 10.0 mi NE 15.0 mph 25.3 mph N/A   Partly Cloudy
1:53 AM 46.9 °F - 24.1 °F 41% 29.85 in 10.0 mi NE 11.5 mph - N/A   Partly Cloudy
2:53 AM 43.0 °F - 26.1 °F 51% 29.85 in 10.0 mi Calm Calm - N/A   Partly Cloudy
3:53 AM 42.1 °F 38.4 °F 25.0 °F 51% 29.86 in 10.0 mi Variable 5.8 mph - N/A   Clear
4:53 AM 39.0 °F 34.8 °F 26.1 °F 60% 29.86 in 10.0 mi North 5.8 mph - N/A   Partly Cloudy
5:53 AM 44.1 °F 40.8 °F 23.0 °F 43% 29.85 in 10.0 mi North 5.8 mph - N/A   Partly Cloudy
6:53 AM 45.0 °F 42.6 °F 24.1 °F 44% 29.84 in 10.0 mi Variable 4.6 mph - N/A   Partly Cloudy
7:53 AM 46.9 °F - 24.1 °F 41% 29.83 in 10.0 mi North 5.8 mph - N/A   Partly Cloudy
8:53 AM 50.0 °F - 23.0 °F 35% 29.81 in 10.0 mi NNE 4.6 mph - N/A   Partly Cloudy
9:53 AM 51.1 °F - 23.0 °F 33% 29.79 in 10.0 mi NNE 8.1 mph - N/A   Partly Cloudy
10:53 AM 53.1 °F - 21.9 °F 30% 29.78 in 10.0 mi ENE 5.8 mph 17.3 mph N/A   Partly Cloudy
11:53 AM 54.0 °F - 19.9 °F 26% 29.76 in 10.0 mi NE 10.4 mph 16.1 mph N/A   Partly Cloudy
12:53 PM 55.0 °F - 19.0 °F 24% 29.75 in 10.0 mi ENE 12.7 mph 19.6 mph N/A   Partly Cloudy
1:53 PM 55.9 °F - 18.0 °F 23% 29.72 in 10.0 mi ENE 15.0 mph 23.0 mph N/A   Clear
3:53 PM 57.0 °F - 18.0 °F 22% 29.70 in 10.0 mi ENE 10.4 mph 24.2 mph N/A   Clear
4:53 PM 57.9 °F - 19.0 °F 22% 29.69 in 10.0 mi NE 12.7 mph 19.6 mph N/A   Clear
5:53 PM 57.0 °F - 19.9 °F 24% 29.67 in 10.0 mi ENE 10.4 mph 20.7 mph N/A   Clear
6:53 PM 55.9 °F - 21.9 °F 27% 29.67 in 10.0 mi ENE 11.5 mph 25.3 mph N/A   Clear
7:53 PM 55.0 °F - 21.9 °F 28% 29.66 in 10.0 mi ENE 10.4 mph 23.0 mph N/A   Partly Cloudy
8:53 PM 54.0 °F - 23.0 °F 30% 29.67 in 10.0 mi ENE 6.9 mph 20.7 mph N/A   Partly Cloudy
9:53 PM 51.1 °F - 21.9 °F 32% 29.67 in 10.0 mi ENE 10.4 mph 20.7 mph N/A   Partly Cloudy
10:53 PM 48.9 °F - 23.0 °F 36% 29.67 in 10.0 mi NE 13.8 mph - N/A   Partly Cloudy
11:53 PM 46.9 °F - 25.0 °F 42% 29.67 in 10.0 mi NNE 12.7 mph - N/A   Partly Cloudy